Home   Weather   Windhoek   Past weeks
Flag for Namibia

Past Weather in Windhoek, Namibia — Yesterday and Last 2 Weeks

Now
73 °F

Mild.


Feels Like: 77 °F
Forecast: 92 / 65 °F
Wind: 13 mph from South

Location: Windhoek

Current Time: Oct 20, 2019 at 8:12:27 am

Latest Report: Oct 20, 2019 at 5:00 am


Visibility: N/A

Pressure: 30.18 "Hg (24.86 "Hg at 1680m altitude)

Humidity: 31%

Dew Point: 41 °F

Location of WindhoekLocation

Past Weather in Windhoek — Graph

°F

Windhoek Temperature Yesterday

Maximum temperature yesterday: 93 °F (at 3:00 pm)
Minimum temperature yesterday: 66 °F (at 4:00 am)
Average temperature yesterday: 81 °F

High & Low Weather Summary for the Past Weeks

 TemperatureHumidityPressure
High93 °F (Oct 8, 5:00 pm)83% (Oct 14, 7:00 pm)30.33 "Hg (Oct 14, 7:00 pm)
Low59 °F (Oct 10, 7:00 am)3% (Oct 7, 8:00 pm)30.01 "Hg (Oct 9, 4:00 pm)
Average77 °F25%30.20 "Hg
* Reported Oct 5 5:00 am — Oct 20 5:00 am, Windhoek. Weather by CustomWeather, © 2019

Note: Actual official high and low records may vary slightly from our data, if they occured in-between our weather recording intervals... More about our weather records

Advertising

Windhoek Weather History for the Previous 24 Hours

Scroll right to see more
 ConditionsComfort  
Time TempWeatherWind HumidityBarometerVisibility
5:00 am
Sun, Oct 20
73 °FMild.13 mph31%30.18 "HgN/A
4:00 am73 °FMild.7 mph33%30.18 "HgN/A
3:00 am75 °FMild.12 mph31%30.18 "HgN/A
2:00 am75 °FMild.13 mph31%30.18 "HgN/A
1:00 am77 °FPleasantly warm.8 mph28%30.21 "HgN/A
12:00 am77 °FPleasantly warm.7 mph30%30.18 "HgN/A
11:00 pm
Sat, Oct 19
79 °FPleasantly warm.5 mph26%30.21 "HgN/A
10:00 pm81 °FPleasantly warm.8 mph23%30.18 "HgN/A
9:00 pm82 °FPleasantly warm.5 mph17%30.18 "HgN/A
8:00 pm84 °FPleasantly warm.5 mph16%30.15 "HgN/A
7:00 pm86 °FPleasantly warm.6 mph14%30.12 "HgN/A
6:00 pm88 °FPleasantly warm.3 mph13%30.12 "HgN/A
5:00 pm90 °FHot.5 mph12%30.12 "HgN/A
4:00 pm90 °FHot.6 mph13%30.12 "HgN/A
3:00 pm93 °FExtremely hot.5 mph11%30.12 "HgN/A
2:00 pm88 °FPleasantly warm.7 mph13%30.15 "HgN/A
1:00 pm88 °FPleasantly warm.7 mph13%30.18 "HgN/A
12:00 pm88 °FPleasantly warm.6 mph13%30.18 "HgN/A
11:00 am88 °FSunny.8 mph16%30.21 "Hg10 mi
10:00 am82 °FPleasantly warm.13 mph19%30.24 "HgN/A
9:00 am81 °FSunny.10 mph21%30.24 "Hg10 mi
8:00 am73 °FMild.6 mph31%30.21 "HgN/A
Weather by CustomWeather, © 2019

See weather overview